Weather History for Kendall, FL

Change the Weather History Date:

Saturday, November 26, 2011

  Actual Average Record
Temperature  
Mean Temperature 74 °F -  
Max Temperature 80 °F 80 °F 87 °F (1996)
Min Temperature 69 °F 64 °F 54 °F (2008)
Cooling Degree Days 10    
Growing Degree Days 24 (Base 50)    
Moisture  
Dew Point 60 °F    
Average Humidity 62    
Maximum Humidity 76    
Minimum Humidity 45    
Precipitation  
Precipitation 0.00 in - - ()
Sea Level Pressure  
Sea Level Pressure 30.13 in    
Wind  
Wind Speed 14 mph (East)    
Max Wind Speed 22 mph    
Max Gust Speed 30 mph    
Visibility 10 miles    
Events      
Averages and records for this station are not official NWS values.
T = Trace of Precipitation, MM = Missing Value Source: NWS Daily Summary

Daily Weather History Graph

Daily Weather History Graph

Search for Another Location

Airport:

Trip Planner

Search our weather history database for the weather conditions in past years. The results will help you decide how hot, cold, wet, or windy it might be!

Date:

Astronomy

Nov. 26, 2011 Rise Set
Actual Time 6:47 AM EST 5:30 PM EST
Civil Twilight 6:22 AM EST 5:55 PM EST
Nautical Twilight 5:54 AM EST 6:23 PM EST
Astronomical Twilight 5:26 AM EST 6:51 PM EST
Moon 8:11 AM EST (11/26) 7:05 PM EST (11/26)
Length of Visible Light 11h 32m
Length of Day
10h 43m
Waxing Crescent, 3% of the Moon is Illuminated
Nov 26
Waxing Crescent
Dec 2
First Quarter
Dec 10
Full
Dec 17
Last Quarter
Dec 24
New

Hourly Weather History & Observations

Time (EST) Temp. Heat Index Dew Point Humidity Pressure Visibility Wind Dir Wind Speed Gust Speed Precip Events Conditions
12:53 AM 71.6 °F - 55.4 °F 57% 30.14 in 10.0 mi East 15.0 mph - N/A   Partly Cloudy
1:53 AM 71.1 °F - 55.9 °F 59% 30.14 in 10.0 mi ESE 10.4 mph - N/A   Clear
2:53 AM 70.0 °F - 57.0 °F 63% 30.13 in 10.0 mi East 8.1 mph - N/A   Clear
3:53 AM 72.0 °F - 62.1 °F 71% 30.12 in 10.0 mi ESE 9.2 mph - N/A   Scattered Clouds
4:53 AM 69.8 °F - 60.8 °F 73% 30.11 in 10.0 mi East 8.1 mph - N/A   Clear
5:53 AM 70.0 °F - 62.1 °F 76% 30.12 in 10.0 mi East 10.4 mph - N/A   Clear
6:53 AM 71.1 °F - 60.1 °F 68% 30.14 in 10.0 mi East 12.7 mph - N/A   Partly Cloudy
7:53 AM 73.0 °F - 57.9 °F 59% 30.16 in 10.0 mi East 12.7 mph - N/A   Clear
8:53 AM 77.0 °F - 60.1 °F 56% 30.17 in 10.0 mi ESE 15.0 mph 21.9 mph N/A   Clear
9:53 AM 78.1 °F - 57.0 °F 48% 30.18 in 10.0 mi ESE 17.3 mph 24.2 mph N/A   Clear
10:53 AM 79.0 °F - 55.9 °F 45% 30.18 in 10.0 mi East 16.1 mph 26.5 mph N/A   Clear
11:53 AM 77.0 °F - 61.0 °F 58% 30.16 in 10.0 mi East 18.4 mph - N/A   Mostly Cloudy
12:53 PM 80.1 °F 81.1 °F 61.0 °F 52% 30.13 in 10.0 mi East 21.9 mph 27.6 mph N/A   Partly Cloudy
1:53 PM 79.0 °F - 61.0 °F 54% 30.10 in 10.0 mi East 21.9 mph 29.9 mph N/A   Scattered Clouds
2:53 PM 79.0 °F - 61.0 °F 54% 30.09 in 10.0 mi East 20.7 mph 28.8 mph N/A   Partly Cloudy
3:53 PM 77.0 °F - 62.1 °F 60% 30.09 in 10.0 mi East 21.9 mph 28.8 mph N/A   Scattered Clouds
4:53 PM 75.9 °F - 63.0 °F 64% 30.10 in 10.0 mi East 15.0 mph - N/A   Scattered Clouds
5:53 PM 73.0 °F - 63.0 °F 71% 30.11 in 10.0 mi East 13.8 mph - 0.00 in   Mostly Cloudy
6:53 PM 71.6 °F - 60.8 °F 69% 30.11 in 10.0 mi East 10.4 mph - N/A   Clear
7:53 PM 71.1 °F - 60.1 °F 68% 30.11 in 10.0 mi East 12.7 mph - N/A   Clear
8:53 PM 71.6 °F - 60.8 °F 69% 30.12 in 10.0 mi East 10.4 mph - N/A   Clear
9:53 PM 73.0 °F - 62.1 °F 68% 30.12 in 10.0 mi ESE 13.8 mph - N/A   Partly Cloudy
10:53 PM 71.6 °F - 60.8 °F 69% 30.12 in 10.0 mi East 11.5 mph - N/A   Partly Cloudy
11:53 PM 72.0 °F - 60.1 °F 66% 30.11 in 10.0 mi East 13.8 mph - N/A   Partly Cloudy